sat.trackr.live / text

‹ back to catalog

CO3D 1

NORAD 64903 · 2025-156E

PAYLOAD ACTIVE UNKNOWN

§ Identity

Operator
Country
FR
Launch date
2025-07-26
Launch site
FRGUI
Launch vehicle
Mass (kg)
RCS (m²)

Purposes: earth_obs

External: N2YO · Heavens-Above · Gunter

§ Orbital elements

Epoch: 2026-05-25T04:22:42.400416Z

Period
94.72 min
Inclination
97.4323°
Eccentricity
0.0000887
Mean motion
15.20194352 rev/d
Perigee alt
504.6 km
Apogee alt
505.9 km
Semi-major
6,883.4 km
B*
2.0941e-4
RAAN
224.1050°
Arg perigee
126.4494°
Mean anomaly
233.6822°
Rev number
4,603

§ Raw data

CO3D 11 64903U 25156E   26145.18243519  .00004467  00000+0  20941-3 0  99912 64903  97.4323 224.1050 0000887 126.4494 233.6822 15.20194352 46030

JSON: /api/v1/satellites/64903 · /tle

For live sub-satellite position, see the globe view (requires WebGL).

§ Visibility from observer

Set your observer location to see the next 7 days of passes ≥ 10°. The values pass through the URL so the page stays shareable.

No JS? Fill the form by hand. The geolocation button needs JavaScript.

§ Radio — SatNOGS DB

ModeDescriptionDownlinkUplink
FM S-band telemetry 2.273 GHz

1 transmitter · refreshed weekly from db.satnogs.org